Change the Weather History Date:

Monday, April 14, 2014

  Actual Average Record
Temperature  
Mean Temperature 59 °F -  
Max Temperature 77 °F - - ()
Min Temperature 41 °F - - ()
Degree Days  
Heating Degree Days 6    
Growing Degree Days 9 (Base 50)    
Moisture  
Dew Point 29 °F    
Average Humidity 35    
Maximum Humidity 81    
Minimum Humidity 11    
Precipitation  
Precipitation 0.00 in - - ()
Sea Level Pressure  
Sea Level Pressure 29.97 in    
Wind  
Wind Speed 6 mph ()    
Max Wind Speed 20 mph    
Max Gust Speed 31 mph    
T = Trace of Precipitation, MM = Missing Value Source: Averaged Metar Reports

Daily Weather History Graph

Daily Weather History Graph

Search for Another Location

Airport or City:

Trip Planner

Search our weather history database for the weather conditions in past years. The results will help you decide how hot, cold, wet, or windy it might be!

Date:

Astronomy

Apr. 14, 2014 Rise Set
Actual Time 6:46 AM CEST 8:15 PM CEST
Civil Twilight 6:15 AM CEST 8:46 PM CEST
Nautical Twilight 5:38 AM CEST 9:24 PM CEST
Astronomical Twilight 4:58 AM CEST 10:04 PM CEST
Moon 7:36 PM CEST (4/14) 6:12 AM CEST (4/14)
Length of Visible Light 14h 30m
Length of Day
13h 28m
Waxing Gibbous, 99% of the Moon is Illuminated
Apr 14
Waxing Gibbous
Apr 15
Full
Apr 22
Last Quarter
Apr 29
New
May 7
First Quarter

Hourly Weather History & Observations

Time (CEST) Temp. Windchill Dew Point Humidity Pressure Visibility Wind Dir Wind Speed Gust Speed Precip Events Conditions
6:20 AM 42.8 °F - 35.6 °F 76% 30.06 in - Variable 1.2 mph - N/A   Clear
6:50 AM 42.8 °F 41.1 °F 35.6 °F 76% 30.06 in - Variable 3.5 mph - N/A   Clear
7:20 AM 41.0 °F - 35.6 °F 81% 30.06 in - Variable 1.2 mph - N/A   Clear
7:50 AM 42.8 °F - 35.6 °F 76% 30.06 in - Calm Calm - N/A   Clear
8:20 AM 46.4 °F - 39.2 °F 76% 30.06 in - East 2.3 mph - N/A   Clear
8:50 AM 50.0 °F - 39.2 °F 66% 30.06 in - Variable 1.2 mph - N/A   Clear
9:50 AM 55.4 °F - 37.4 °F 51% 30.06 in - Variable 1.2 mph - N/A   Clear
10:20 AM 59.0 °F - 39.2 °F 48% 30.04 in - East 3.5 mph - N/A   Clear
10:50 AM 60.8 °F - 35.6 °F 39% 30.01 in - Variable 2.3 mph - N/A   Clear
11:20 AM 64.4 °F - 37.4 °F 37% 30.01 in - Variable 1.2 mph - N/A   Clear
11:50 AM 66.2 °F - 37.4 °F 35% 29.98 in - Variable 2.3 mph - N/A   Clear
12:20 PM 68.0 °F - 37.4 °F 33% 29.98 in - Variable 2.3 mph - N/A   Clear
12:50 PM 73.4 °F - 37.4 °F 27% 29.92 in - West 8.1 mph - N/A   Clear
1:50 PM 77.0 °F - 23.0 °F 13% 29.92 in - WNW 16.1 mph 27.6 mph N/A   Clear
2:20 PM 77.0 °F - 21.2 °F 12% 29.92 in - WNW 18.4 mph - N/A   Clear
2:50 PM 77.0 °F - 21.2 °F 12% 29.92 in - West 19.6 mph 31.1 mph N/A   Clear
3:20 PM 77.0 °F - 17.6 °F 11% 29.92 in - WNW 16.1 mph 29.9 mph N/A   Clear
3:50 PM 77.0 °F - 17.6 °F 11% 29.89 in - WNW 17.3 mph 29.9 mph N/A   Clear
4:20 PM 75.2 °F - 17.6 °F 11% 29.89 in - NW 16.1 mph - N/A   Clear
5:20 PM 75.2 °F - 21.2 °F 13% 29.89 in - NW 12.7 mph 24.2 mph N/A   Clear
5:50 PM 75.2 °F - 23.0 °F 14% 29.92 in - WNW 15.0 mph - N/A   Clear
6:20 PM 73.4 °F - 23.0 °F 15% 29.92 in - WNW 13.8 mph 31.1 mph N/A   Clear
6:50 PM 73.4 °F - 23.0 °F 15% 29.89 in - WNW 11.5 mph - N/A   Clear
7:20 PM 71.6 °F - 23.0 °F 16% 29.92 in - WNW 12.7 mph - N/A   Clear
7:50 PM 68.0 °F - 23.0 °F 18% 29.92 in - WNW 9.2 mph - N/A   Clear
8:20 PM 68.0 °F - 26.6 °F 21% 29.92 in - NW 11.5 mph 23.0 mph N/A   Clear